{"data":{"norad_id":53827,"epoch":"2026-09-20T22:40:04.775808Z","epoch_age_seconds":45911,"freshness":"FRESH","line1":"1 53827U 22114K   26263.94449972 -.00003840  00000+0 -99248-4 0  9994","line2":"2 53827  53.1593 138.1335 0000565 335.8652  24.2324 15.35402556222431","mean_motion":15.35402556,"eccentricity":5.65e-5,"inclination_deg":53.1593,"raan_deg":138.1335,"arg_perigee_deg":335.8652,"mean_anomaly_deg":24.2324,"bstar":-9.9248e-5,"rev_number":22243,"period_min":93.786479276904,"perigee_km":459.33871481959,"apogee_km":460.11139323169,"semimajor_km":6837.8620540256,"source":"CELESTRAK","updated_at":"2026-09-21T09:00:32.999116Z"}}